FREGAT DEB, 45831

Orbit data source: Space-Track

FREGAT DEB, 45831 is space debris in LEO originally from a launch on Mon, 18 Jul 2011 UTC launched from the Tyuratam Missile And Space Complex (TTMTR). Debris objects in space refer to the collection of defunct objects orbiting the Earth. Examples of debris include non-operational satellites, rocket bodies, and fragments generated from explosions, collisions, or faulty payload assembly.

Loading next visibility...
Identifier
45831, 2011-037BR
Orbit
LEO
Last TLE update
9 hours ago
Origin
Manufacturer
Lavochkin
Mission
Spacecraft
Bus & Motor
Unknown
Mass
Unknown
Launch date (UTC)
2011-07-18 (14 years ago)
Launch vehicle
Unknown
Launch site
Tyuratam Missile And Space Complex (TTMTR)
Object type
Payload
Rocket body
Debris
Shape & HBR
Unknown
Radar Cross Section
Small (<0.1 m²)

Expand to show TLE details & history

TLE from 9 hours ago
0 FREGAT DEB
1 45831U 11037BR  25132.90967817  .00001998  00000-0  10744-2 0  9998
2 45831  51.4403  14.8229 1644010 343.1987  12.0030 11.53297690207667
Epoch: 2025-05-12T21:49Z
Definitive object data (Epoch: 2025-05-12T21:49:56.193Z)
Latitude
-0.00004°
Longitude
176.42274°
Altitude
579.606 km
Speed
8.152 km/s
True Right ascension
00h 59m 17s
True Declination
0° 00' 00"
Sunlit
Object was in daylight at TLE epoch
Visualization TLE readout
Latitude
-1.14221°
Longitude
-3.70693°
Altitude
3,172.15 km
Speed
5.944 km/s
Apparent Right ascension
11h 04m 13s
Apparent Declination
-32° 42' 48"
Sunlit
Object is in full shadow
Visualization observer readout
Local Sidereal Time
15:40:37
Azimuth
232.319° WSW
Elevation
-6.695°
Doppler factor
1
Orbital elements
Apogee altitude
3,257.96 km
Perigee altitude
536.932 km
Semi-major axis
8,275.583 km
Eccentricity
0.164401
Inclination
51.4403°
RAAN
14.8229°
Arg. of periapsis
343.1987°
True anomaly
16.88769°
Mean anomaly
12.003°
Eccentric anomaly
14.33521°
Mean motion
2.883 °/min
BSTAR
0.0010744
Orbital period
124.87 mins
Loading maneuver chart data...
Loading SW <> Apogee altitude chart data...
Loading historical data...
Loading historical data...
Loading historical data...
Loading historical data...
Loading historical data...
Loading historical data...
Loading historical data...

FREGAT DEB Visibility forecast

Observer location: undefined°, undefined°

Span
Click to sort rows by Start time (UTC) header in descending order
Start Az.
Max El. time (UTC)
Max El. Az.
Max El.
End time (UTC)
End Az.
14 mins2025-05-13 18:47:52.984Z220.29° SW2025-05-13 18:51:52.984Z150.348° SSE44.194°2025-05-13 19:01:52.984Z54.639° ENE
19 mins2025-05-13 20:57:52.984Z279.995° WNW2025-05-13 21:03:52.984Z344.95° N37.191°2025-05-13 21:16:52.984Z61.852° ENE
25 mins2025-05-13 23:09:52.984Z305.699° NW2025-05-13 23:18:52.984Z22.181° NNE38.886°2025-05-13 23:34:52.984Z91.656° ESE
31 mins2025-05-14 01:20:52.984Z306.308° NW2025-05-14 01:32:52.984Z131.203° SE44.986°2025-05-14 01:51:52.984Z131.61° SE
29 mins2025-05-14 03:32:52.984Z294.527° NW2025-05-14 03:44:52.984Z239.186° WSW33.445°2025-05-14 04:01:52.984Z175.876° S
|